Wetterdaten: aktuell Freitag, 19.10.2018 23:15
Datum Zeit Temp. A. Feuchte A. Regen Helligkeit Taupunkt
19.10.2018 23:15 10,0 C 85 % 0,0 l/m 793 lux 7,6 C
19.10.2018 22:15 10,2 C 84 % 0,0 l/m 793 lux 7,6 C
19.10.2018 21:15 11,2 C 81 % 0,0 l/m 793 lux 8,1 C
19.10.2018 20:15 12,1 C 80 % 0,0 l/m 793 lux 8,8 C
19.10.2018 19:15 12,7 C 76 % 0,0 l/m 793 lux 8,6 C
19.10.2018 18:15 14,3 C 70 % 0,0 l/m 3,52 klux 8,9 C
19.10.2018 17:15 15,6 C 68 % 0,0 l/m 25,3 klux 9,7 C
19.10.2018 16:15 15,0 C 71 % 0,0 l/m 30,1 klux 9,8 C
19.10.2018 15:15 15,2 C 73 % 0,0 l/m 32,8 klux 10,4 C
19.10.2018 14:14 14,9 C 74 % 0,0 l/m 22,7 klux 10,3 C
19.10.2018 13:15 14,6 C 79 % 0,0 l/m 41,7 klux 11,0 C
19.10.2018 12:15 13,4 C 83 % 0,0 l/m 20,4 klux 10,6 C
19.10.2018 11:15 11,7 C 89 % 0,0 l/m 32,3 klux 9,9 C
19.10.2018 10:15 8,7 C 90 % 0,0 l/m 309 lux 7,2 C
19.10.2018 09:14 5,7 C 88 % 0,0 l/m 309 lux 3,9 C
19.10.2018 08:15 4,9 C 88 % 0,0 l/m 309 lux 3,1 C
19.10.2018 07:15 4,9 C 87 % 0,0 l/m 309 lux 2,9 C
19.10.2018 06:15 5,3 C 87 % 0,0 l/m 309 lux 3,3 C
19.10.2018 05:15 5,7 C 87 % 0,0 l/m 309 lux 3,7 C
19.10.2018 04:15 6,2 C 87 % 0,0 l/m 309 lux 4,2 C
19.10.2018 03:15 7,0 C 87 % 0,0 l/m 309 lux 5,0 C
19.10.2018 02:15 6,8 C 87 % 0,0 l/m 309 lux 4,8 C
19.10.2018 01:15 7,2 C 86 % 0,0 l/m 309 lux 5,0 C
19.10.2018 00:15 7,7 C 85 % 0,0 l/m 309 lux 5,3 C
19.10.2018 00:00 8,0 C 85 % 0,0 l/m 309 lux 5,6 C
_ Min-Zeit 08:00 18:00 - - 07:45
Minimum _ 4,7 C 68 % - - 2,8 C
_ Max-Zeit 17:15 11:00 23:15 13:15 13:15
Maximum _ 15,6 C 90 % 0,0 l/m 41,7 klux 11,0 C
Durchschnitt _ 10,0 C 82 % #0,0 l/m 7,45 klux 7,0 C